Вернуться в каталог

KUIPER-00438

АктивенСвязьLEO
NORAD 68940·PAYLOAD·🇺🇸 United States

Запущен Apr 30, 2026 с Guiana Space Centre

Loading…

Ближайшие Пролёты (ближайшие 24 часа)

TLE

СвежийSource: CelesTrak SupGP

Эпоха: Sep 14, 2026, 22:26 UTC

1 68940C 26098X   26257.93526620  .00004671  00000+0  61164-3 0  2572
2 68940  51.9037  18.8181 0000607  89.7066 260.3021 14.79914704    11

Отслеживайте KUIPER-00438 в реальном времени с AllMySat

Download on the App Store